Location: Dompnac
(44.5644°N, 4.1026°E)
Time: 10:03:10
(UTC+00:00)

Meteor 2-5 Rocket - Pass Details

Date: 19 September 2020
Orbit: 833 x 912 km, 81.2° (Epoch: 29 October)

Event Time Altitude Azimuth Distance (km) Brightness Sun altitude
Rises 20:16:20 0° 347° (NNW) 3,419 7.5 -26.3°
Reaches altitude 10° 20:18:45 10° 346° (NNW) 2,489 6.7 -26.7°
Maximum altitude 20:24:23 75° 262° (W) 896 3.8 -27.5°
Enters shadow 20:25:14 63° 204° (SSW) 964 3.8 -27.7°
